TimeEDT,TemperatureF,Dew PointF,Humidity,Sea Level PressureIn,VisibilityMPH,Wind Direction,Wind SpeedMPH,Gust SpeedMPH,PrecipitationIn,Events,Conditions,WindDirDegrees,DateUTC
12:15 AM,75.4,68.0,78,29.59,10.0,South,5.8,-,N/A,,Mostly Cloudy,190,2013-06-29 04:15:00
12:35 AM,73.9,68.9,84,29.60,10.0,South,3.5,-,N/A,,Mostly Cloudy,190,2013-06-29 04:35:00
12:55 AM,74.5,68.9,83,29.59,10.0,South,6.9,-,N/A,,Mostly Cloudy,190,2013-06-29 04:55:00
1:15 AM,74.7,68.7,82,29.57,10.0,South,5.8,-,N/A,,Overcast,190,2013-06-29 05:15:00
1:35 AM,74.3,68.9,83,29.56,10.0,SSW,3.5,-,N/A,,Scattered Clouds,200,2013-06-29 05:35:00
1:55 AM,73.9,69.1,85,29.57,10.0,SSW,4.6,-,N/A,,Scattered Clouds,210,2013-06-29 05:55:00
2:15 AM,74.3,69.1,84,29.57,10.0,SSW,8.1,-,N/A,,Overcast,210,2013-06-29 06:15:00
2:35 AM,74.5,69.1,83,29.56,10.0,SW,5.8,-,N/A,Rain,Light Rain,220,2013-06-29 06:35:00
2:55 AM,73.9,69.6,86,29.56,10.0,South,4.6,-,N/A,,Mostly Cloudy,180,2013-06-29 06:55:00
3:15 AM,73.4,70.7,91,29.57,10.0,South,4.6,-,N/A,,Overcast,190,2013-06-29 07:15:00
3:35 AM,73.0,70.7,92,29.56,10.0,South,4.6,-,N/A,,Scattered Clouds,190,2013-06-29 07:35:00
3:55 AM,72.9,70.7,93,29.56,10.0,SSW,6.9,-,N/A,,Scattered Clouds,200,2013-06-29 07:55:00
4:15 AM,72.9,70.3,92,29.56,10.0,South,5.8,-,N/A,Thunderstorm,Scattered Clouds,190,2013-06-29 08:15:00
4:35 AM,72.5,70.7,94,29.56,10.0,South,5.8,-,N/A,,Scattered Clouds,170,2013-06-29 08:35:00
4:55 AM,72.0,70.5,95,29.58,10.0,SSE,4.6,-,N/A,,Scattered Clouds,160,2013-06-29 08:55:00
5:15 AM,72.0,70.5,95,29.58,10.0,SSE,4.6,-,N/A,,Mostly Cloudy,160,2013-06-29 09:15:00
5:35 AM,71.8,70.3,95,29.58,10.0,South,6.9,-,N/A,,Mostly Cloudy,190,2013-06-29 09:35:00
5:55 AM,71.6,70.2,95,29.59,10.0,SSW,5.8,-,N/A,,Scattered Clouds,200,2013-06-29 09:55:00
6:15 AM,71.6,70.0,95,29.59,10.0,SSW,5.8,-,N/A,,Clear,200,2013-06-29 10:15:00
6:35 AM,72.0,70.2,94,29.59,10.0,SSW,5.8,-,N/A,,Clear,200,2013-06-29 10:35:00
6:55 AM,72.0,69.8,93,29.60,10.0,SSW,5.8,-,N/A,,Clear,200,2013-06-29 10:55:00
7:15 AM,72.0,69.8,93,29.60,10.0,South,6.9,-,N/A,,Scattered Clouds,180,2013-06-29 11:15:00
7:35 AM,72.0,69.8,93,29.61,10.0,SSW,8.1,-,N/A,,Scattered Clouds,210,2013-06-29 11:35:00
7:55 AM,72.9,69.3,88,29.62,10.0,South,8.1,17.3,N/A,,Scattered Clouds,190,2013-06-29 11:55:00
8:15 AM,73.6,69.8,88,29.63,10.0,SW,6.9,-,N/A,,Mostly Cloudy,220,2013-06-29 12:15:00
8:35 AM,73.4,69.3,87,29.62,10.0,SSW,8.1,-,N/A,,Scattered Clouds,200,2013-06-29 12:35:00
8:55 AM,75.9,69.6,81,29.62,10.0,SSW,6.9,-,N/A,,Clear,210,2013-06-29 12:55:00
9:15 AM,75.9,70.0,82,29.63,10.0,SSW,6.9,-,N/A,,Clear,200,2013-06-29 13:15:00
9:35 AM,77.4,70.0,78,29.63,10.0,South,9.2,-,N/A,,Scattered Clouds,180,2013-06-29 13:35:00
9:55 AM,78.1,69.8,76,29.64,10.0,South,9.2,-,N/A,,Mostly Cloudy,180,2013-06-29 13:55:00
10:15 AM,79.2,69.8,73,29.64,10.0,South,8.1,-,N/A,,Mostly Cloudy,170,2013-06-29 14:15:00
10:35 AM,79.7,70.2,73,29.64,10.0,South,5.8,-,N/A,,Scattered Clouds,190,2013-06-29 14:35:00
10:55 AM,80.6,70.0,70,29.64,10.0,South,3.5,-,N/A,,Scattered Clouds,190,2013-06-29 14:55:00
11:15 AM,81.7,69.1,65,29.63,10.0,South,6.9,-,N/A,,Clear,190,2013-06-29 15:15:00
11:35 AM,82.9,68.9,62,29.63,10.0,South,5.8,-,N/A,,Scattered Clouds,170,2013-06-29 15:35:00
11:55 AM,83.7,67.8,59,29.63,10.0,WSW,4.6,-,N/A,,Scattered Clouds,240,2013-06-29 15:55:00
12:15 PM,84.0,67.6,58,29.62,10.0,SW,6.9,-,N/A,,Scattered Clouds,220,2013-06-29 16:15:00
12:35 PM,85.8,66.7,53,29.63,10.0,South,6.9,-,N/A,,Clear,190,2013-06-29 16:35:00
12:55 PM,86.5,66.4,51,29.63,10.0,SSW,3.5,-,N/A,,Clear,210,2013-06-29 16:55:00
1:15 PM,87.4,66.9,50,29.64,10.0,South,9.2,-,N/A,,Clear,170,2013-06-29 17:15:00
1:35 PM,87.1,64.9,48,29.63,10.0,South,4.6,-,N/A,,Scattered Clouds,170,2013-06-29 17:35:00
1:55 PM,88.5,64.4,45,29.62,10.0,WSW,9.2,-,N/A,,Scattered Clouds,250,2013-06-29 17:55:00
2:15 PM,87.6,64.0,45,29.62,10.0,SSW,4.6,-,N/A,,Scattered Clouds,210,2013-06-29 18:15:00
2:35 PM,87.1,63.7,45,29.62,10.0,South,6.9,-,N/A,,Mostly Cloudy,190,2013-06-29 18:35:00
2:55 PM,88.2,63.3,43,29.63,10.0,SSW,6.9,-,N/A,,Mostly Cloudy,210,2013-06-29 18:55:00
3:15 PM,89.6,63.0,41,29.63,10.0,South,9.2,-,N/A,,Scattered Clouds,180,2013-06-29 19:15:00
3:35 PM,89.8,62.8,40,29.62,10.0,SSW,8.1,-,N/A,,Scattered Clouds,200,2013-06-29 19:35:00
3:55 PM,88.5,62.4,42,29.63,10.0,SSW,5.8,-,N/A,,Clear,210,2013-06-29 19:55:00
4:15 PM,86.9,64.2,47,29.63,10.0,SSW,4.6,-,N/A,,Scattered Clouds,200,2013-06-29 20:15:00
4:35 PM,89.2,64.9,44,29.62,10.0,South,8.1,-,N/A,,Scattered Clouds,170,2013-06-29 20:35:00
4:55 PM,87.3,66.0,49,29.63,10.0,South,4.6,-,N/A,,Mostly Cloudy,190,2013-06-29 20:55:00
5:15 PM,88.7,66.6,48,29.63,10.0,SSE,11.5,-,N/A,,Scattered Clouds,150,2013-06-29 21:15:00
5:35 PM,86.4,70.2,58,29.63,10.0,SSE,10.4,-,N/A,,Scattered Clouds,150,2013-06-29 21:35:00
5:55 PM,85.8,70.5,60,29.62,10.0,South,5.8,-,N/A,,Scattered Clouds,170,2013-06-29 21:55:00
6:15 PM,86.0,70.3,59,29.63,10.0,SSE,5.8,-,N/A,,Clear,150,2013-06-29 22:15:00
6:35 PM,86.2,70.7,60,29.64,10.0,South,9.2,-,N/A,,Clear,180,2013-06-29 22:35:00
6:55 PM,85.6,69.8,59,29.65,10.0,South,9.2,-,N/A,,Clear,170,2013-06-29 22:55:00
7:15 PM,84.9,70.0,61,29.65,10.0,South,8.1,-,N/A,,Clear,170,2013-06-29 23:15:00
7:35 PM,84.0,70.2,63,29.66,10.0,SSE,4.6,-,N/A,,Clear,160,2013-06-29 23:35:00
7:55 PM,82.4,70.3,67,29.67,10.0,Calm,Calm,-,N/A,,Clear,0,2013-06-29 23:55:00
8:15 PM,81.5,71.2,71,29.68,10.0,SE,5.8,-,N/A,,Clear,140,2013-06-30 00:15:00
8:35 PM,80.6,71.6,74,29.68,10.0,SSE,4.6,-,N/A,,Clear,150,2013-06-30 00:35:00
8:55 PM,79.7,71.6,76,29.68,10.0,SSE,3.5,-,N/A,,Clear,150,2013-06-30 00:55:00
9:15 PM,78.8,71.8,79,29.69,10.0,Calm,Calm,-,N/A,,Scattered Clouds,0,2013-06-30 01:15:00
9:35 PM,77.9,71.8,81,29.70,10.0,Calm,Calm,-,N/A,,Clear,0,2013-06-30 01:35:00
9:55 PM,77.7,71.6,81,29.70,10.0,Calm,Calm,-,N/A,,Clear,0,2013-06-30 01:55:00
10:15 PM,77.0,71.1,82,29.71,10.0,Calm,Calm,-,N/A,,Clear,0,2013-06-30 02:15:00
10:35 PM,76.6,70.7,82,29.71,10.0,Calm,Calm,-,N/A,,Clear,0,2013-06-30 02:35:00
10:55 PM,75.9,70.3,83,29.72,10.0,Calm,Calm,-,N/A,,Clear,0,2013-06-30 02:55:00
11:15 PM,75.2,71.1,87,29.72,10.0,Calm,Calm,-,N/A,,Clear,0,2013-06-30 03:15:00
11:35 PM,74.7,71.6,90,29.72,10.0,Calm,Calm,-,N/A,,Clear,0,2013-06-30 03:35:00
11:55 PM,73.6,71.2,92,29.73,10.0,Calm,Calm,-,N/A,,Clear,0,2013-06-30 03:55:00